BAW253 MYNN-MWCR

Flight info

Callsign BAW253
Flight time 1h 3m
Altitude 39000
Route JEFRY G437 DYNAH UG437 ALTIB/N0474F410 UG437 ULBAS UM330 KANEX GORAN3
Aircraft B77W/H-SDE1E2E3FGHIJ2J3J4J5M1RWXY/LB1D1

Departure

Time 2026-04-25 08:51
Airport Lynden Pindling International Airport (MYNN)

Arrival

Time 2026-04-25 09:54
Airport Owen Roberts International Airport (MWCR)
Time Latitude Longitude Altitude Speed Heading
2026-04-25 08:46 25.05024 -77.46885 22 ft 0 kts 352°
2026-04-25 08:46 25.05021 -77.46885 22 ft 0 kts 352°
2026-04-25 08:47 25.05007 -77.46882 25 ft 0 kts 352°
2026-04-25 08:47 25.04993 -77.46880 24 ft 0 kts 352°
2026-04-25 08:47 25.04979 -77.46878 25 ft 0 kts 335°
2026-04-25 08:47 25.04971 -77.46866 26 ft 0 kts 278°
2026-04-25 08:48 25.04972 -77.46859 27 ft 0 kts 262°
2026-04-25 08:49 25.04962 -77.46887 24 ft 7 kts 239°
2026-04-25 08:49 25.04924 -77.46927 25 ft 9 kts 215°
2026-04-25 08:49 25.04852 -77.46941 28 ft 11 kts 186°
2026-04-25 08:49 25.04795 -77.46995 28 ft 11 kts 248°
2026-04-25 08:50 25.04751 -77.47060 30 ft 11 kts 189°
2026-04-25 08:50 25.04682 -77.47011 31 ft 17 kts 135°
2026-04-25 08:50 25.04352 -77.46644 27 ft 126 kts 135°
2026-04-25 08:50 25.03467 -77.45661 231 ft 222 kts 135°
2026-04-25 08:51 25.02238 -77.44443 1607 ft 238 kts 147°
2026-04-25 08:51 25.00647 -77.43895 2879 ft 249 kts 179°
2026-04-25 08:51 24.98973 -77.44446 3743 ft 259 kts 215°
2026-04-25 08:51 24.97567 -77.45724 4575 ft 265 kts 221°
2026-04-25 08:52 24.96101 -77.46997 5585 ft 271 kts 217°
2026-04-25 08:52 24.94519 -77.48169 6616 ft 276 kts 213°
2026-04-25 08:52 24.92849 -77.49246 7616 ft 279 kts 210°
2026-04-25 08:52 24.91137 -77.50234 8609 ft 283 kts 208°
2026-04-25 08:53 24.89347 -77.51185 9604 ft 287 kts 206°
2026-04-25 08:53 24.87509 -77.52105 10467 ft 295 kts 205°
2026-04-25 08:53 24.85555 -77.53047 10888 ft 321 kts 205°
2026-04-25 08:53 24.83403 -77.54056 11113 ft 351 kts 204°
2026-04-25 08:54 24.81081 -77.55122 11712 ft 367 kts 204°
2026-04-25 08:54 24.78694 -77.56203 12629 ft 373 kts 204°
2026-04-25 08:54 24.76278 -77.57289 13656 ft 377 kts 205°
2026-04-25 08:54 24.73836 -77.58384 14573 ft 381 kts 205°
2026-04-25 08:55 24.71366 -77.59492 15472 ft 386 kts 205°
2026-04-25 08:55 24.68892 -77.60601 16355 ft 391 kts 206°
2026-04-25 08:55 24.66342 -77.61744 17239 ft 397 kts 206°
2026-04-25 08:55 24.63770 -77.62896 18096 ft 402 kts 206°
2026-04-25 08:56 24.61161 -77.64065 18842 ft 408 kts 206°
2026-04-25 08:56 24.58516 -77.65249 19616 ft 412 kts 206°
2026-04-25 08:56 24.55857 -77.66466 20401 ft 416 kts 207°
2026-04-25 08:56 24.53186 -77.67719 21169 ft 420 kts 207°
2026-04-25 08:57 24.50487 -77.68992 21916 ft 425 kts 208°
2026-04-25 08:57 24.47748 -77.70278 22626 ft 430 kts 208°
2026-04-25 08:57 24.44983 -77.71571 23345 ft 434 kts 208°
2026-04-25 08:57 24.42223 -77.72857 23965 ft 438 kts 208°
2026-04-25 08:58 24.39397 -77.74169 24582 ft 442 kts 208°
2026-04-25 08:58 24.36549 -77.75487 25195 ft 446 kts 208°
2026-04-25 08:58 24.33673 -77.76817 25793 ft 449 kts 208°
2026-04-25 08:58 24.30780 -77.78154 26381 ft 453 kts 208°
2026-04-25 08:59 24.27858 -77.79505 26949 ft 457 kts 208°
2026-04-25 08:59 24.24954 -77.80847 27493 ft 461 kts 208°
2026-04-25 08:59 24.21980 -77.82221 28032 ft 465 kts 209°
2026-04-25 08:59 24.18981 -77.83606 28546 ft 469 kts 209°
2026-04-25 09:00 24.15957 -77.85003 29050 ft 473 kts 209°
2026-04-25 09:00 24.12918 -77.86404 29549 ft 476 kts 209°
2026-04-25 09:00 24.09850 -77.87819 30019 ft 479 kts 210°
2026-04-25 09:00 24.06760 -77.89243 30388 ft 483 kts 210°
2026-04-25 09:01 24.03657 -77.90671 30808 ft 484 kts 210°
2026-04-25 09:01 24.00591 -77.92081 31298 ft 483 kts 210°
2026-04-25 09:01 23.97493 -77.93505 31844 ft 481 kts 210°
2026-04-25 09:01 23.94405 -77.94943 32328 ft 478 kts 212°
2026-04-25 09:02 23.91402 -77.96491 32795 ft 476 kts 214°
2026-04-25 09:02 23.88426 -77.98082 33257 ft 475 kts 214°
2026-04-25 09:02 23.85496 -77.99663 33729 ft 474 kts 215°
2026-04-25 09:02 23.82537 -78.01254 34166 ft 473 kts 215°
2026-04-25 09:03 23.79579 -78.02835 34571 ft 472 kts 214°
2026-04-25 09:03 23.76634 -78.04400 34962 ft 471 kts 214°
2026-04-25 09:03 23.73684 -78.05964 35359 ft 470 kts 214°
2026-04-25 09:03 23.70743 -78.07522 35740 ft 468 kts 214°
2026-04-25 09:04 23.67813 -78.09072 36108 ft 467 kts 214°
2026-04-25 09:04 23.64928 -78.10596 36449 ft 467 kts 214°
2026-04-25 09:04 23.61989 -78.12145 36807 ft 466 kts 214°
2026-04-25 09:05 23.56107 -78.15251 36912 ft 471 kts 214°
2026-04-25 09:05 23.50266 -78.18323 36907 ft 465 kts 215°
2026-04-25 09:06 23.44457 -78.21378 36914 ft 463 kts 215°
2026-04-25 09:06 23.38661 -78.24429 36918 ft 462 kts 215°
2026-04-25 09:07 23.32861 -78.27479 36918 ft 463 kts 215°
2026-04-25 09:07 23.27045 -78.30533 36921 ft 464 kts 215°
2026-04-25 09:08 23.21212 -78.33592 36914 ft 465 kts 215°
2026-04-25 09:08 23.15405 -78.36634 36914 ft 466 kts 215°
2026-04-25 09:09 23.09551 -78.39699 36909 ft 467 kts 215°
2026-04-25 09:09 23.03688 -78.42764 36923 ft 468 kts 215°
2026-04-25 09:10 22.97825 -78.45829 36913 ft 468 kts 215°
2026-04-25 09:10 22.91953 -78.48901 36917 ft 468 kts 215°
2026-04-25 09:11 22.83144 -78.53505 36913 ft 468 kts 215°
2026-04-25 09:11 22.77317 -78.56546 36912 ft 467 kts 215°
2026-04-25 09:12 22.71444 -78.59602 36908 ft 467 kts 215°
2026-04-25 09:12 22.65613 -78.62631 36910 ft 467 kts 215°
2026-04-25 09:13 22.59741 -78.65680 36908 ft 467 kts 215°
2026-04-25 09:13 22.53874 -78.68725 36914 ft 467 kts 215°
2026-04-25 09:14 22.48003 -78.71769 36914 ft 467 kts 215°
2026-04-25 09:14 22.42162 -78.74795 36910 ft 468 kts 215°
2026-04-25 09:15 22.36277 -78.77840 36909 ft 468 kts 215°
2026-04-25 09:15 22.30399 -78.80879 36914 ft 468 kts 215°
2026-04-25 09:16 22.24520 -78.83916 36914 ft 468 kts 215°
2026-04-25 09:16 22.18675 -78.86932 36914 ft 468 kts 215°
2026-04-25 09:17 22.09840 -78.91486 36912 ft 469 kts 215°
2026-04-25 09:18 22.03950 -78.94519 36909 ft 469 kts 215°
2026-04-25 09:18 21.98058 -78.97550 36912 ft 469 kts 215°
2026-04-25 09:19 21.92160 -79.00580 36908 ft 469 kts 215°
2026-04-25 09:19 21.87264 -79.03094 36905 ft 469 kts 215°
2026-04-25 09:20 21.81373 -79.06117 36906 ft 469 kts 215°
2026-04-25 09:20 21.75479 -79.09139 36908 ft 469 kts 215°
2026-04-25 09:21 21.69780 -79.12446 36909 ft 459 kts 223°
2026-04-25 09:21 21.64876 -79.16595 36920 ft 448 kts 230°
2026-04-25 09:22 21.60239 -79.21082 36900 ft 448 kts 231°
2026-04-25 09:22 21.55579 -79.25571 36909 ft 450 kts 230°
2026-04-25 09:23 21.50899 -79.30042 36913 ft 450 kts 230°
2026-04-25 09:23 21.46194 -79.34520 36906 ft 451 kts 230°
2026-04-25 09:24 21.41518 -79.38968 36902 ft 451 kts 230°
2026-04-25 09:24 21.36813 -79.43442 36898 ft 451 kts 230°
2026-04-25 09:25 21.32132 -79.47890 36898 ft 451 kts 230°
2026-04-25 09:25 21.27425 -79.52355 36899 ft 452 kts 230°
2026-04-25 09:26 21.22714 -79.56821 36901 ft 452 kts 230°
2026-04-25 09:26 21.18000 -79.61287 36900 ft 452 kts 230°
2026-04-25 09:27 21.13280 -79.65755 36902 ft 452 kts 230°
2026-04-25 09:27 21.08584 -79.70197 36898 ft 452 kts 230°
2026-04-25 09:28 21.03864 -79.74658 36901 ft 452 kts 230°
2026-04-25 09:28 20.99166 -79.79095 36724 ft 455 kts 230°
2026-04-25 09:28 20.96777 -79.81355 36195 ft 458 kts 230°
2026-04-25 09:29 20.94398 -79.83595 35763 ft 452 kts 229°
2026-04-25 09:29 20.92047 -79.85804 35320 ft 447 kts 229°
2026-04-25 09:29 20.89724 -79.87989 34850 ft 443 kts 229°
2026-04-25 09:29 20.87420 -79.90157 34413 ft 439 kts 229°
2026-04-25 09:30 20.85135 -79.92309 33954 ft 435 kts 229°
2026-04-25 09:30 20.82871 -79.94441 33451 ft 432 kts 229°
2026-04-25 09:30 20.80625 -79.96555 32983 ft 428 kts 229°
2026-04-25 09:30 20.78399 -79.98648 32522 ft 424 kts 229°
2026-04-25 09:31 20.76195 -80.00720 32076 ft 420 kts 229°
2026-04-25 09:31 20.74010 -80.02774 31632 ft 416 kts 229°
2026-04-25 09:31 20.71842 -80.04812 31209 ft 413 kts 229°
2026-04-25 09:31 20.69693 -80.06830 30771 ft 410 kts 229°
2026-04-25 09:32 20.67583 -80.08812 30349 ft 407 kts 229°
2026-04-25 09:32 20.65456 -80.10808 29905 ft 405 kts 228°
2026-04-25 09:32 20.63344 -80.12790 29405 ft 402 kts 228°
2026-04-25 09:32 20.61242 -80.14762 28927 ft 399 kts 228°
2026-04-25 09:33 20.59161 -80.16713 28478 ft 396 kts 228°
2026-04-25 09:33 20.57096 -80.18649 28040 ft 393 kts 228°
2026-04-25 09:33 20.55045 -80.20571 27602 ft 391 kts 228°
2026-04-25 09:33 20.53034 -80.22453 27180 ft 388 kts 228°
2026-04-25 09:34 20.51005 -80.24351 26741 ft 386 kts 228°
2026-04-25 09:34 20.48984 -80.26239 26326 ft 384 kts 227°
2026-04-25 09:34 20.46981 -80.28107 25911 ft 382 kts 227°
2026-04-25 09:34 20.44986 -80.29968 25474 ft 380 kts 227°
2026-04-25 09:35 20.42996 -80.31824 25070 ft 379 kts 227°
2026-04-25 09:35 20.41013 -80.33675 24643 ft 377 kts 227°
2026-04-25 09:35 20.39061 -80.35495 24225 ft 376 kts 227°
2026-04-25 09:35 20.37089 -80.37334 23801 ft 376 kts 227°
2026-04-25 09:36 20.35124 -80.39166 23366 ft 375 kts 227°
2026-04-25 09:36 20.33154 -80.41001 22884 ft 374 kts 226°
2026-04-25 09:36 20.31203 -80.42818 22449 ft 372 kts 226°
2026-04-25 09:36 20.29258 -80.44628 22018 ft 369 kts 226°
2026-04-25 09:37 20.27325 -80.46427 21599 ft 367 kts 226°
2026-04-25 09:37 20.25404 -80.48214 21182 ft 366 kts 226°
2026-04-25 09:37 20.23514 -80.49972 20774 ft 364 kts 226°
2026-04-25 09:37 20.21606 -80.51746 20366 ft 363 kts 226°
2026-04-25 09:38 20.19706 -80.53513 19947 ft 362 kts 226°
2026-04-25 09:38 20.17808 -80.55277 19539 ft 361 kts 225°
2026-04-25 09:38 20.15920 -80.57031 19120 ft 360 kts 225°
2026-04-25 09:38 20.14029 -80.58788 18698 ft 360 kts 225°
2026-04-25 09:39 20.12140 -80.60542 18276 ft 360 kts 225°
2026-04-25 09:39 20.10247 -80.62299 17801 ft 360 kts 225°
2026-04-25 09:39 20.08359 -80.64050 17364 ft 359 kts 225°
2026-04-25 09:40 20.04628 -80.67510 16522 ft 357 kts 224°
2026-04-25 09:40 20.02759 -80.69242 16104 ft 356 kts 224°
2026-04-25 09:40 20.00896 -80.70967 15686 ft 354 kts 224°
2026-04-25 09:40 19.98970 -80.72605 15259 ft 355 kts 218°
2026-04-25 09:41 19.96917 -80.74073 14854 ft 355 kts 216°
2026-04-25 09:41 19.94852 -80.75510 14413 ft 354 kts 216°
2026-04-25 09:41 19.92788 -80.76943 14002 ft 354 kts 216°
2026-04-25 09:41 19.90727 -80.78378 13560 ft 354 kts 216°
2026-04-25 09:42 19.88670 -80.79817 13111 ft 353 kts 216°
2026-04-25 09:42 19.86650 -80.81234 12686 ft 351 kts 216°
2026-04-25 09:42 19.84619 -80.82662 12266 ft 349 kts 216°
2026-04-25 09:42 19.82599 -80.84084 11858 ft 348 kts 215°
2026-04-25 09:43 19.80589 -80.85500 11452 ft 346 kts 215°
2026-04-25 09:43 19.78590 -80.86908 11048 ft 344 kts 215°
2026-04-25 09:43 19.76596 -80.88314 10641 ft 342 kts 215°
2026-04-25 09:43 19.74618 -80.89707 10320 ft 338 kts 215°
2026-04-25 09:44 19.72683 -80.91069 10173 ft 329 kts 215°
2026-04-25 09:44 19.70801 -80.92393 10016 ft 320 kts 215°
2026-04-25 09:44 19.68974 -80.93678 9873 ft 311 kts 215°
2026-04-25 09:44 19.67188 -80.94935 9615 ft 299 kts 215°
2026-04-25 09:45 19.65507 -80.96116 9212 ft 282 kts 215°
2026-04-25 09:45 19.63909 -80.97240 8863 ft 273 kts 215°
2026-04-25 09:45 19.62344 -80.98341 8532 ft 273 kts 215°
2026-04-25 09:45 19.60759 -80.99456 8206 ft 273 kts 215°
2026-04-25 09:46 19.59173 -81.00572 7884 ft 273 kts 215°
2026-04-25 09:46 19.57589 -81.01686 7550 ft 273 kts 215°
2026-04-25 09:46 19.56006 -81.02798 7236 ft 273 kts 214°
2026-04-25 09:46 19.54414 -81.03917 6916 ft 273 kts 214°
2026-04-25 09:47 19.52846 -81.05018 6596 ft 274 kts 214°
2026-04-25 09:47 19.51248 -81.06140 6270 ft 274 kts 214°
2026-04-25 09:47 19.49656 -81.07258 5934 ft 275 kts 214°
2026-04-25 09:47 19.48060 -81.08378 5595 ft 275 kts 214°
2026-04-25 09:48 19.46461 -81.09500 5251 ft 275 kts 214°
2026-04-25 09:48 19.44865 -81.10620 4932 ft 275 kts 214°
2026-04-25 09:48 19.43265 -81.11742 4611 ft 275 kts 214°
2026-04-25 09:48 19.41693 -81.12844 4303 ft 274 kts 214°
2026-04-25 09:49 19.40105 -81.13957 3990 ft 273 kts 214°
2026-04-25 09:49 19.38526 -81.15064 3679 ft 272 kts 214°
2026-04-25 09:49 19.37060 -81.16090 3470 ft 267 kts 214°
2026-04-25 09:49 19.35541 -81.17153 3286 ft 248 kts 214°
2026-04-25 09:50 19.34165 -81.18124 3065 ft 230 kts 217°
2026-04-25 09:50 19.33228 -81.19346 2796 ft 207 kts 250°
2026-04-25 09:50 19.32858 -81.20751 2552 ft 190 kts 256°
2026-04-25 09:50 19.32544 -81.22059 2283 ft 176 kts 256°
2026-04-25 09:51 19.32255 -81.23258 2114 ft 160 kts 256°
2026-04-25 09:51 19.31993 -81.24351 1856 ft 146 kts 256°
2026-04-25 09:51 19.31744 -81.25398 1714 ft 149 kts 256°
2026-04-25 09:51 19.31487 -81.26479 1524 ft 153 kts 256°
2026-04-25 09:52 19.31229 -81.27564 1312 ft 151 kts 256°
2026-04-25 09:52 19.30979 -81.28618 1116 ft 148 kts 256°
2026-04-25 09:52 19.30729 -81.29670 963 ft 149 kts 256°
2026-04-25 09:52 19.30475 -81.30741 733 ft 150 kts 256°
2026-04-25 09:53 19.30221 -81.31807 522 ft 148 kts 256°
2026-04-25 09:53 19.29972 -81.32855 356 ft 147 kts 256°
2026-04-25 09:53 19.29724 -81.33907 171 ft 147 kts 256°
2026-04-25 09:53 19.29479 -81.34962 23 ft 148 kts 256°
2026-04-25 09:54 19.29304 -81.35681 20 ft 28 kts 256°
2026-04-25 09:54 19.29329 -81.35798 19 ft 17 kts 338°
2026-04-25 09:54 19.29405 -81.35808 21 ft 5 kts
2026-04-25 09:54 19.29439 -81.35811 24 ft 5 kts 349°
2026-04-25 09:55 19.29460 -81.35816 23 ft 0 kts 348°